{"data":{"norad_id":51152,"intl_designator":"2022-005BA","name":"STARLINK-3364","alt_names":[],"object_type":"PAYLOAD","status":"ACTIVE","operator":null,"country":"US","launch_date":"2022-01-19","launch_site_code":"AFETR","launch_vehicle":null,"mission":null,"orbit_class":"UNKNOWN","rcs_meters":null,"size_class":null,"mass_kg":null,"dimensions":null,"purposes":["comms"],"wikipedia_slug":null,"has_3d_model":false,"image_url":null,"decayed_at":null,"tle_current":{"epoch":"2026-05-24T19:27:22.967136Z","epoch_age_seconds":101800,"freshness":"FRESH","line1":"1 51152U 22005BA  26144.81068249  .00000225  00000+0  32223-4 0  9992","line2":"2 51152  53.2150 327.0158 0001467  92.4220 267.6940 15.08836789240099","mean_motion":15.08836789,"eccentricity":0.0001467,"inclination_deg":53.215,"raan_deg":327.0158,"arg_perigee_deg":92.422,"mean_anomaly_deg":267.694,"bstar":3.2223e-5,"rev_number":24009,"period_min":95.437757781236,"perigee_km":538.73834923104,"apogee_km":540.76805821682,"semimajor_km":6917.8902037239,"source":"CELESTRAK","updated_at":"2026-05-25T13:38:16.916897Z"}}}